| time (UTC) | temp F | wind direction | speed knots | gust knots | rain 1hr in | rain 24hr in | rain mn in | humidity % | barometer mb |
| 20260507211049 | 66 | 87 | 0.0 | 0.0 | 0.00 | 0.01 | 0.01 | 57 | 1008.1 |
| 20260507201049 | 67 | 251 | 1.7 | 3.5 | 0.00 | 0.01 | 0.01 | 55 | 1008.8 |
| 20260507191049 | 65 | 157 | 0.9 | 0.9 | 0.00 | 0.01 | 0.01 | 59 | 1009.4 |
| 20260507181048 | 64 | 130 | 1.7 | 2.6 | 0.00 | 0.01 | 0.01 | 57 | 1010.1 |
| 20260507171045 | 57 | 89 | 0.9 | 1.7 | 0.00 | 0.01 | 0.01 | 70 | 1011.1 |
| 20260507161046 | 56 | 148 | 0.0 | 0.9 | 0.00 | 0.01 | 0.01 | 73 | 1011.7 |
| 20260507151045 | 53 | 90 | 0.9 | 0.9 | 0.00 | 0.01 | 0.01 | 77 | 1012.2 |
| 20260507141040 | 53 | 78 | 0.0 | 0.0 | 0.00 | 0.01 | 0.01 | 83 | 1012.8 |
| 20260507131036 | 53 | 83 | 0.9 | 1.7 | 0.00 | 0.01 | 0.01 | 81 | 1013.0 |
| 20260507121032 | 53 | 83 | 0.9 | 0.9 | 0.00 | 0.01 | 0.01 | 83 | 1012.8 |
| 20260507111028 | 52 | 83 | 0.0 | 0.0 | 0.00 | 0.01 | 0.01 | 87 | 1012.6 |
| 20260507101027 | 52 | 58 | 0.9 | 0.9 | 0.00 | 0.01 | 0.01 | 89 | 1012.1 |
| 20260507091027 | 52 | 66 | 0.9 | 1.7 | 0.00 | 0.01 | 0.01 | 90 | 1011.7 |
| 20260507081027 | 53 | 42 | 3.5 | 3.5 | 0.00 | 0.01 | 0.01 | 89 | 1011.5 |
| 20260507071024 | 54 | 64 | 1.7 | 1.7 | 0.00 | 0.01 | 0.01 | 90 | 1010.9 |
| 20260507061020 | 56 | 70 | 1.7 | 1.7 | 0.00 | 0.01 | 0.01 | 92 | 1010.9 |
| 20260507051017 | 58 | 86 | 0.0 | 0.9 | 0.00 | 0.01 | 0.01 | 95 | 1010.5 |
| 20260507041017 | 59 | 80 | 0.9 | 0.9 | 0.05 | 0.01 | 0.01 | 95 | 1010.7 |
| 20260507031014 | 61 | 100 | 0.0 | 0.0 | 0.12 | 0.36 | 0.36 | 94 | 1010.5 |
| 20260507021010 | 64 | 80 | 0.0 | 0.9 | 0.40 | 0.13 | 0.13 | 85 | 1010.1 |
| 20260507011007 | 67 | 111 | 0.0 | 0.0 | 0.00 | 0.06 | 0.06 | 78 | 1009.5 |
| 20260507001006 | 70 | 231 | 1.7 | 1.7 | 0.00 | 0.06 | 0.06 | 71 | 1009.2 |
| 20260506231002 | 72 | 321 | 3.5 | 5.2 | 0.00 | 0.06 | 0.06 | 67 | 1008.8 |
| 20260506220958 | 73 | 105 | 0.9 | 1.7 | 0.00 | 0.06 | 0.06 | 65 | 1008.3 |